Location: Atherton
(17.2661°S, 145.4859°E)
Time: 12:42:37
(UTC+10:00)

Vanguard 1 - Pass Details

Date: 01 July 2025
Orbit: 649 x 3822 km, 34.2° (Epoch: 05 July)

Event Time Altitude Azimuth Distance (km) Brightness Sun altitude
Rises 01:12:10 0° 240° (WSW) 4,102 - -76.8°
Reaches altitude 10° 01:15:29 10° 241° (WSW) 2,767 - -76.1°
Maximum altitude 01:21:32 79° 327° (NNW) 753 - -74.8°
Drops below altitude 10° 01:25:57 10° 53° (NE) 2,050 - -73.9°
Sets 01:28:06 0° 54° (NE) 2,949 - -73.4°
